Location: Hurstbourne Priors
(51.2000°N, 1.3667°W)
Time: 19:32:29
(UTC+00:00)

Transit 4A - Pass Details

Date: 20 April 2021
Orbit: 870 x 974 km, 66.8° (Epoch: 09 May)

Event Time Altitude Azimuth Distance (km) Brightness Sun altitude
Rises 04:30:27 0° 306° (NW) 3,572 10.7 -5.1°
Reaches altitude 10° 04:33:52 10° 324° (NW) 2,608 10.2 -4.6°
Maximum altitude 04:37:59 19° 8° (N) 2,037 10.2 -4.0°
Drops below altitude 10° 04:42:02 10° 51° (NE) 2,561 11.8 -3.4°
Sets 04:45:21 0° 70° (ENE) 3,485 14.3 -2.9°
